User: anonymous   Login
Location: Unspecified
(0.0000°N, 0.0000°E)
Time: 17:02:32
(UTC+00:00)
Language:

COSMOS 2454 - Orbit

View from above orbital plane
View from above orbital plane
View from above satellite
View from above satellite

Ground track
Ground track

The orbit data is extracted from the following two-line orbital elements,

1 35635U 09039A   18175.08183190  .00000059  00000-0  35335-4 0  9992
2 35635  82.9569  76.7560 0018778 322.5526  37.4330 13.89628155452706
Epoch (UTC): 24 June 2018 01:57:50
Eccentricity: 0.0018778
inclination: 82.9569°
perigee height: 916 km
apogee height: 943 km
right ascension of ascending node: 76.7560°
argument of perigee: 322.5526°
revolutions per day: 13.89628155
mean anomaly at epoch: 37.4330°
orbit number at epoch: 45270

The dashed part of the orbit path shows where the satellite is in the earth's shadow,  

DLR